This is the latest recevied weather packets stored in our database for station/object K0NV. If no packets are shown the sender has not sent any weather packets the latest 10 day(s).
| Time | Temp. | Humidity | Pressure | Rain* | Wind** | Luminosity | Snow |
|---|---|---|---|---|---|---|---|
| 1778009122 | 10.56° C | 96% | 1009.9 hPa | 0 mm | - | 92 W/m² | - |
| 1778008819 | 10.56° C | 95% | 1010.1 hPa | 0 mm | - | 57 W/m² | - |
| 1778008517 | 10.56° C | 94% | 1010.2 hPa | 0 mm | - | 46 W/m² | - |
| 1778008215 | 10.56° C | 94% | 1010.1 hPa | 0 mm | - | 54 W/m² | - |
| 1778007909 | 10.56° C | 94% | 1009.7 hPa | 0 mm | - | 72 W/m² | - |
| 1778007605 | 10.56° C | 93% | 1009.6 hPa | 0 mm | - | 101 W/m² | - |
| 1778007302 | 10.56° C | 92% | 1009.6 hPa | 0 mm | - | 104 W/m² | - |
| 1778006998 | 11.11° C | 90% | 1009.5 hPa | 0 mm | - | 98 W/m² | - |
| 1778006695 | 11.11° C | 89% | 1009.5 hPa | 0 mm | - | 104 W/m² | - |
| 1778006391 | 11.11° C | 89% | 1009.7 hPa | 0 mm | - | 78 W/m² | - |
| 1778006089 | 11.67° C | 88% | 1009.5 hPa | 0 mm | - | 66 W/m² | - |
| 1778005785 | 11.67° C | 88% | 1009.7 hPa | 0 mm | - | 85 W/m² | - |
| 1778005482 | 11.67° C | 88% | 1009.8 hPa | 0 mm | - | 55 W/m² | - |
| 1778005178 | 11.67° C | 88% | 1009.4 hPa | 0 mm | - | 65 W/m² | - |
| 1778004876 | 11.67° C | 88% | 1009.7 hPa | 0 mm | - | 67 W/m² | - |
| 1778004573 | 11.67° C | 87% | 1009.4 hPa | 0 mm | - | 87 W/m² | - |
| 1778004269 | 11.67° C | 88% | 1009.2 hPa | 0 mm | - | 101 W/m² | - |
| 1778003966 | 11.67° C | 88% | 1009.2 hPa | 0 mm | - | 94 W/m² | - |
| 1778003662 | 11.67° C | 87% | 1009.5 hPa | 0 mm | - | 79 W/m² | - |
| 1778003358 | 11.67° C | 87% | 1009.4 hPa | 0 mm | - | 114 W/m² | - |
| 1778003056 | 12.22° C | 87% | 1009.5 hPa | 0 mm | - | 79 W/m² | - |
| 1778002752 | 12.22° C | 86% | 1009.1 hPa | 0 mm | - | 134 W/m² | - |
| 1778002449 | 12.22° C | 86% | 1009.4 hPa | 0 mm | - | 88 W/m² | - |
| 1778002146 | 12.78° C | 86% | 1009 hPa | 0 mm | - | 105 W/m² | - |
| 1778001844 | 12.78° C | 86% | 1009.1 hPa | 0 mm | - | 158 W/m² | - |
* Rain latest hour (hover to see other rain measurements)
** Current wind speed in m/s (hover to see current wind gust speed)